Phoenix Deer Valley, AZ

11:07 AM MST on June 25, 2017 (GMT -0700)
Phoenix-Deer Valley Municipal

Weather History for KDVT - June, 2013

Change the Weather History Date:

Wednesday, June 26, 2013

  Actual Average Record
Temperature  
Mean Temperature 88 °F -  
Max Temperature 100 °F 100 °F 109 °F (2002)
Min Temperature 75 °F 77 °F 71 °F (1998)
Cooling Degree Days 22    
Growing Degree Days 38 (Base 50)    
Moisture  
Dew Point 32 °F    
Average Humidity 13    
Maximum Humidity 19    
Minimum Humidity 9    
Precipitation  
Precipitation 0.00 in - - ()
Sea Level Pressure  
Sea Level Pressure 29.86 in    
Wind  
Wind Speed 5 mph (South)    
Max Wind Speed 13 mph    
Max Gust Speed 22 mph    
Visibility 10 miles    
Events      
Averages and records for this station are not official NWS values.
T = Trace of Precipitation, MM = Missing Value Source: NWS Daily Summary

Daily Weather History Graph

Daily Weather History Graph

Search for Another Location

Airport or City:

Trip Planner

Search our weather history database for the weather conditions in past years. The results will help you decide how hot, cold, wet, or windy it might be!

Date:

Astronomy

Jun. 26, 2013 Rise Set
Actual Time 5:19 AM MST 7:42 PM MST
Civil Twilight 4:50 AM MST 8:11 PM MST
Nautical Twilight 4:15 AM MST 8:47 PM MST
Astronomical Twilight 3:35 AM MST 9:26 PM MST
Moon 10:21 PM MST (6/26) 9:04 AM MST (6/26)
Length of Visible Light 15h 20m
Length of Day
14h 22m
Waning Gibbous, 84% of the Moon is Illuminated
Jun 26
Waning Gibbous
Jun 29
Last Quarter
Jul 8
New
Jul 15
First Quarter
Jul 22
Full

Hourly Weather History & Observations

Time (MST) Temp. Dew Point Humidity Pressure Visibility Wind Dir Wind Speed Gust Speed Precip Events Conditions
12:53 AM 86.0 °F 26.1 °F 11% 29.81 in 10.0 mi WSW 4.6 mph - N/A   Clear
1:53 AM 84.0 °F 27.0 °F 13% 29.83 in 10.0 mi North 3.5 mph - N/A   Clear
2:53 AM 82.9 °F 27.0 °F 13% 29.83 in 10.0 mi NNE 4.6 mph - N/A   Clear
3:53 AM 75.9 °F 30.0 °F 19% 29.85 in 10.0 mi ESE 4.6 mph - N/A   Clear
4:53 AM 75.0 °F 28.0 °F 18% 29.87 in 10.0 mi Calm Calm - N/A   Clear
5:53 AM 75.9 °F 30.0 °F 19% 29.89 in 10.0 mi Calm Calm - N/A   Clear
6:53 AM 81.0 °F 30.9 °F 16% 29.90 in 10.0 mi East 5.8 mph - N/A   Clear
7:53 AM 86.0 °F 28.9 °F 13% 29.91 in 10.0 mi East 6.9 mph - N/A   Clear
8:53 AM 89.1 °F 26.1 °F 10% 29.92 in 10.0 mi Variable 5.8 mph - N/A   Clear
9:53 AM 91.0 °F 26.1 °F 10% 29.93 in 10.0 mi SE 10.4 mph - N/A   Clear
10:53 AM 93.9 °F 27.0 °F 9% 29.92 in 10.0 mi SSE 10.4 mph 21.9 mph N/A   Clear
11:53 AM 96.1 °F 30.0 °F 10% 29.91 in 10.0 mi SSW 5.8 mph - N/A   Clear
12:53 PM 97.0 °F 37.0 °F 12% 29.90 in 10.0 mi Variable 5.8 mph - N/A   Clear
1:53 PM 100.9 °F 39.0 °F 12% 29.87 in 10.0 mi WSW 12.7 mph 19.6 mph N/A   Clear
2:53 PM 100.0 °F 39.0 °F 12% 29.86 in 10.0 mi SSW 8.1 mph - N/A   Clear
3:53 PM 100.0 °F 37.0 °F 11% 29.84 in 10.0 mi SSW 6.9 mph - N/A   Clear
4:53 PM 100.9 °F 36.0 °F 11% 29.82 in 10.0 mi South 3.5 mph - N/A   Clear
5:53 PM 100.0 °F 37.9 °F 12% 29.81 in 10.0 mi Calm Calm - N/A   Clear
6:53 PM 99.0 °F 37.9 °F 12% 29.80 in 10.0 mi Variable 5.8 mph - N/A   Clear
7:53 PM 98.1 °F 37.0 °F 12% 29.80 in 10.0 mi SW 6.9 mph - N/A   Clear
8:53 PM 95.0 °F 37.0 °F 13% 29.81 in 10.0 mi Calm Calm - N/A   Clear
9:53 PM 91.9 °F 35.1 °F 13% 29.83 in 10.0 mi Calm Calm - N/A   Clear
10:53 PM 87.1 °F 32.0 °F 14% 29.84 in 10.0 mi NNE 4.6 mph - N/A   Clear
11:53 PM 86.0 °F 37.0 °F 18% 29.86 in 10.0 mi Calm Calm - N/A   Clear